Regional Weather Roundup
Issued by NWS Raleigh/Durham, NC

Home | Current Version | Previous Version | Text Only | Print | Product List | Glossary On
Versions: 1 2 3 4 5 6 7 8 9 10 11 12 13 14 15 16 17 18 19 20 21 22 23 24 25 26 27 28 29 30 31 32 33 34 35 36 37 38 39 40 41 42 43 44 45 46 47 48 49 50
000
ASUS42 KRAH 040110
RWRRAH
NORTH CAROLINA WEATHER ROUNDUP
NATIONAL WEATHER SERVICE RALEIGH NC
900 PM EDT THU SEP 03 2015

NOTE: "FAIR" INDICATES FEW OR NO CLOUDS BELOW 12,000 FEET WITH NO
SIGNIFICANT WEATHER AND/OR OBSTRUCTIONS TO VISIBILITY.

NCZ001-053-055-056-065-067-040200-
WESTERN NORTH CAROLINA

CITY           SKY/WX    TMP DP  RH WIND       PRES   REMARKS
ASHEVILLE      CLEAR     76  62  62 N5        30.03R
JEFFERSON      PTCLDY    72  59  64 CALM      30.09S
MORGANTON      PTCLDY    74  65  73 N5        30.02R
HICKORY        PTCLDY    80  65  59 NW3       29.96R
RUTHERFORDTON  PTCLDY    80  62  54 CALM      29.96R
MOUNT AIRY     PTCLDY    73  71  91 CALM      29.99R
BOONE          CLEAR     66  65  96 CALM      30.11R
$$

NCZ021-022-025-041-071-084-088-040200-
CENTRAL NORTH CAROLINA

CITY           SKY/WX    TMP DP  RH WIND       PRES   REMARKS
CHARLOTTE      PTCLDY    80  60  50 N6        29.94R
GREENSBORO     MOCLDY    80  66  62 NW3       29.95R
WINSTON-SALEM  PTCLDY    82  69  64 CALM      29.97R
RALEIGH-DURHAM MOCLDY    76  70  82 CALM      29.92R
FORT BRAGG     PTCLDY    78  73  83 CALM      29.89R
FAYETTEVILLE   PTCLDY    83  70  64 CALM      29.89R
BURLINGTON     PTCLDY    76  71  85 CALM      29.93R
LAURINBURG     PTCLDY    78  72  81 NE3       29.90R
$$

NCZ011-015-027-028-043-044-047-080-103-040200-
NORTHEASTERN NORTH CAROLINA

CITY           SKY/WX    TMP DP  RH WIND       PRES   REMARKS
ROCKY MT-WILSO PTCLDY    76  73  91 CALM      29.91R
GREENVILLE     PTCLDY    75  73  94 CALM      29.92R
WASHINGTON     CLEAR     75  71  87 CALM      29.90R
ELIZABETH CITY PTCLDY    75  72  90 CALM      29.90R
MANTEO         PTCLDY    80  72  76 SW8       29.90R
CAPE HATTERAS  PTCLDY    78  72  81 W5        29.89R
$$

NCZ078-087-090-091-093-098-101-040200-
SOUTHEASTERN NORTH CAROLINA

CITY           SKY/WX    TMP DP  RH WIND       PRES   REMARKS
LUMBERTON      MOCLDY    80  73  79 CALM      29.89R
GOLDSBORO      PTCLDY    78  73  86 CALM      29.89R
KINSTON        PTCLDY    75  73  94 CALM      29.91R
KENANSVILLE      N/A     74  72  94 CALM      29.91R
NEW BERN       CLEAR     76  73  91 CALM      29.91R
CHERRY POINT   PTCLDY    78  73  84 SW6       29.90R
BEAUFORT       MOCLDY    79  76  90 SW6       29.90R
JACKSONVILLE   MOCLDY    77  72  84 CALM      29.89R
WILMINGTON     MOCLDY    75  70  84 SW3       29.90R
$$



USA.gov is the U.S. government's official web portal to all federal, state and local government web resources and services.